User: anonymous   Login
Location: Brede
(50.9167°N, 0.6000°E)
Time: 07:21:13
(UTC+00:00)
Language:

Cosmos 372 Rocket - Orbit

View from above orbital plane
View from above orbital plane
View from above satellite
View from above satellite

Ground track
Ground track

The orbit data is extracted from the following two-line orbital elements,

1  4589U 70086B   20296.22455106  .00000043  00000-0  21307-4 0  9995
2  4589  74.0612 215.8385 0019750 124.9998 235.3016 14.41601021623522
Epoch (UTC): 22 October 2020 05:23:21
Eccentricity: 0.0019750
inclination: 74.0612°
perigee height: 739 km
apogee height: 767 km
right ascension of ascending node: 215.8385°
argument of perigee: 124.9998°
revolutions per day: 14.41601021
mean anomaly at epoch: 235.3016°
orbit number at epoch: 62352

The dashed part of the orbit path shows where the satellite is in the earth's shadow,  

DLR